Wind_Speed
7 12 20 22 6 10 10 7 10 8 9 6 8 5 5 4 4 1 10 7 8 9 11 14 14 11 9 8 7 5 3 3 4 6 8 10 12 13 14 16 17 18 19 19 18 18 18 18 18
10 19 21 8 9 14 12 10 12 9 11 11 11 8 5 3 7 5 8 10 10 13 12 14 13 12 8 7 6 4 2 5 6 9 13 14 15 16 18 18 19 20 20 19 19 20 21 21 20
17 22 9 6 13 14 12 12 11 12 11 8 5 7 4 3 6 9 12 13 14 13 12 12 10 9 8 7 6 4 5 7 9 12 14 15 16 16 17 17 18 18 18 18 19 22 23 23 21
21 16 4 10 8 9 14 13 13 10 7 7 5 2 4 8 9 14 17 16 14 12 10 9 8 8 6 4 3 5 6 8 11 12 13 14 14 14 14 14 14 14 15 16 18 19 18 17 16
19 11 10 9 11 10 13 13 10 7 5 4 4 2 4 8 13 19 17 14 12 10 9 7 6 4 3 3 5 6 8 8 9 10 11 12 11 12 14 14 13 11 11 13 14 15 15 15 12
7 10 11 13 14 13 12 10 8 7 7 4 5 7 7 11 17 16 12 9 9 8 7 6 4 5 6 7 6 6 6 4 6 9 10 10 10 12 13 13 13 12 12 14 16 16 15 16 16
8 9 13 16 13 12 10 8 6 6 7 4 7 7 6 15 13 11 9 8 8 8 7 6 6 5 5 5 5 6 5 7 9 10 10 10 11 14 15 15 15 15 16 18 19 19 19 19 19
4 6 12 12 13 10 9 7 7 7 7 8 7 4 10 14 12 11 9 9 8 8 7 7 4 3 4 4 6 6 6 7 8 8 8 11 13 15 18 18 19 21 21 22 22 23 23 22 22
10 12 11 9 9 8 8 7 6 8 6 6 6 7 12 13 13 12 11 10 10 8 6 4 1 1 4 5 5 4 4 5 7 8 10 12 16 18 21 20 24 26 27 28 27 27 26 26 26
7 6 10 6 5 8 8 7 4 5 7 5 8 9 10 11 12 12 13 13 12 10 7 6 3 1 4 6 7 7 6 6 6 8 10 13 15 18 20 23 23 27 28 30 30 30 30 30 30
5 6 8 6 7 7 7 7 5 6 5 7 8 9 13 6 8 12 12 11 10 9 8 7 5 4 4 6 7 7 7 6 6 6 8 11 13 16 19 22 25 28 28 27 30 31 30 30 31
8 8 7 8 8 8 6 5 4 7 5 8 8 10 12 7 8 12 14 12 10 9 7 10 8 4 4 5 7 7 7 9 8 9 12 15 16 17 18 21 25 26 28 29 28 28 29 28 29
7 8 8 8 7 6 8 6 5 6 6 10 10 11 11 11 10 10 12 12 10 10 10 8 9 4 1 2 4 6 9 10 13 14 16 18 21 19 19 22 23 25 26 28 28 29 29 30 29
10 8 8 6 5 5 6 6 6 8 10 10 11 10 10 11 10 9 12 13 12 10 11 12 9 5 6 6 10 13 15 14 17 18 20 22 23 21 23 21 21 21 24 26 28 29 28 29 29
10 8 4 5 5 4 6 10 8 6 7 9 12 12 12 12 10 9 10 14 13 13 11 15 10 12 11 12 14 17 18 18 18 21 24 24 22 21 22 22 22 24 26 29 31 31 31 30 30
8 8 11 6 6 6 7 15 12 6 8 10 10 13 13 13 12 12 12 13 12 9 12 14 14 16 15 17 19 22 24 22 22 24 26 25 24 25 24 22 21 25 29 31 29 30 33 35 37
8 13 6 4 7 4 7 0 5 10 14 13 14 13 12 14 15 15 13 12 12 13 12 14 20 16 21 20 22 25 25 23 18 22 24 27 28 29 28 28 27 29 32 34 31 30 32 37 38
8 6 8 5 4 5 7 8 8 8 11 8 12 14 14 15 16 16 16 13 12 13 13 12 22 20 24 24 24 25 27 26 26 29 30 30 30 32 33 33 35 36 36 38 36 35 35 35 38
1 4 5 4 5 3 5 4 2 4 4 5 6 8 11 11 15 23 18 19 18 18 14 11 21 27 23 24 25 27 27 27 31 31 36 36 37 37 38 37 40 41 42 38 37 36 37 39 39
3 4 3 5 4 1 4 6 3 4 7 6 4 4 7 14 15 18 20 19 17 20 14 21 25 24 23 27 31 29 30 31 34 34 39 37 40 39 40 45 46 44 40 38 38 39 41 42 40
4 3 3 5 6 8 7 10 7 4 7 7 7 9 10 8 7 15 18 17 14 13 14 19 22 24 26 30 33 34 32 33 36 41 40 42 44 43 45 45 44 40 41 41 41 44 46 48 48
6 4 8 8 7 10 11 5 10 8 5 5 5 7 7 6 6 6 10 10 11 15 18 22 26 29 32 33 36 33 37 43 45 46 48 50 47 46 44 42 41 42 44 45 47 49 51 51 55
4 8 6 6 8 9 9 12 11 10 7 3 3 3 3 10 10 10 10 13 16 19 21 25 30 34 36 39 37 38 44 43 43 48 49 45 39 42 42 42 43 43 45 50 55 54 54 55 56
5 6 4 3 4 7 2 7 11 7 5 4 2 0 2 6 12 12 14 18 21 23 25 30 33 38 37 38 45 50 50 44 41 43 46 45 45 45 47 49 51 52 54 59 57 55 57 57 56
6 5 5 3 4 2 2 7 2 3 4 5 3 3 4 14 13 15 17 17 24 23 25 28 29 31 35 41 46 47 46 49 48 47 46 46 47 50 53 55 56 58 59 56 52 45 42 40 41
6 5 4 4 3 5 4 5 7 6 2 3 3 6 7 14 19 18 14 15 16 24 26 28 30 36 41 40 41 45 45 43 45 46 46 48 51 54 55 57 59 59 55 46 41 39 40 39 36
5 3 1 0 1 3 6 4 6 6 2 1 4 5 6 5 5 8 10 18 29 31 36 37 34 33 37 42 44 45 45 49 49 50 52 52 52 54 57 58 54 47 38 37 37 36 36 34 35
3 2 4 3 3 4 3 13 7 6 4 5 6 9 9 9 9 12 17 21 26 28 34 36 38 44 48 45 43 47 50 47 48 48 48 52 56 58 54 50 35 29 35 37 36 36 38 42 40
4 2 3 3 3 4 5 5 3 2 3 7 10 13 12 12 15 19 21 28 29 29 29 38 44 47 43 46 49 53 48 44 44 50 53 56 55 53 49 42 38 34 35 36 40 42 42 42 38
1 2 2 2 2 4 4 10 1 1 5 10 10 14 13 14 16 19 20 25 29 35 35 45 51 43 43 45 47 41 44 44 48 52 54 54 51 47 42 39 36 33 33 29 33 34 36 37 35
Wind_Direction
187 158 153 152 193 225 139 112 157 149 143 154 134 117 109 113 35 91 209 184 175 180 175 169 170 173 184 193 205 204 215 261 274 285 291 287 279 280 283 283 282 282 283 285 288 288 287 285 284
175 154 151 157 235 205 146 165 153 147 137 125 107 86 100 48 232 251 162 178 175 160 165 161 173 198 206 207 195 189 217 269 271 278 290 283 281 283 285 288 289 283 280 280 280 283 284 287 291
163 153 156 207 228 193 144 165 149 141 131 127 133 105 85 117 116 143 156 152 150 151 161 173 179 185 185 187 196 217 254 259 277 286 290 291 293 291 291 292 293 292 288 284 283 284 289 292 291
148 155 177 194 142 94 154 157 154 144 142 142 142 60 108 126 122 159 153 151 148 148 156 163 177 189 191 202 230 267 278 284 286 292 301 300 296 294 293 298 302 294 285 284 285 286 290 295 296
142 172 201 163 140 132 145 156 152 160 159 155 134 163 148 168 166 152 155 156 153 155 166 178 195 222 247 272 281 281 285 290 307 318 317 308 305 308 313 315 313 307 304 304 304 302 301 304 304
175 196 190 149 143 144 150 159 163 166 164 194 131 131 135 172 158 162 167 171 172 178 188 206 237 274 284 289 295 297 302 315 335 331 324 314 309 317 316 318 315 313 309 308 307 308 306 303 305
195 182 164 138 156 155 163 166 164 170 169 146 164 168 176 178 181 179 182 192 206 206 218 244 270 283 296 302 302 310 305 325 325 322 322 315 307 311 310 310 304 299 298 299 301 302 302 303 301
191 177 144 158 171 153 171 150 176 159 171 165 141 222 178 190 198 202 207 214 217 224 254 278 292 346 352 353 347 329 304 309 318 320 315 308 306 307 304 303 299 297 296 297 299 301 302 301 299
124 161 153 166 174 174 174 169 173 202 198 159 165 158 184 209 212 220 219 222 220 228 254 229 282 49 64 52 41 19 349 324 316 308 304 303 303 305 301 300 298 296 296 296 295 295 295 295 294
180 174 142 160 166 181 179 177 190 138 184 179 169 175 170 192 207 214 222 217 217 227 214 211 231 185 61 39 27 20 7 353 346 337 327 312 315 307 305 305 301 298 298 296 295 293 294 292 293
221 152 150 165 154 167 173 171 164 154 181 195 179 176 179 203 208 210 194 201 195 204 201 227 217 170 101 67 60 39 22 13 358 353 347 331 323 315 314 313 314 310 305 302 304 302 296 294 292
145 127 167 168 158 159 172 187 197 176 178 174 178 194 185 199 204 196 192 198 192 209 200 206 206 164 101 79 44 26 6 358 338 328 331 333 325 318 315 314 314 311 310 311 310 308 305 302 300
168 150 154 151 151 149 192 181 190 201 212 194 181 191 189 194 200 201 204 189 204 207 209 230 224 191 187 10 1 354 349 340 339 321 316 322 325 316 316 319 318 316 316 319 319 317 314 311 308
161 154 149 153 171 182 155 216 184 201 198 198 201 203 210 203 210 210 196 200 202 206 236 237 242 243 283 309 305 310 311 320 321 321 315 314 319 314 314 319 319 320 320 319 317 317 317 318 318
164 152 155 179 205 228 203 216 211 202 193 214 220 216 218 217 213 214 201 202 206 219 229 253 234 263 280 288 291 295 301 311 313 317 317 314 319 320 326 327 328 328 327 324 320 318 314 310 307
178 200 201 179 200 238 229 260 195 216 224 231 229 221 219 225 218 215 206 201 202 204 229 248 245 265 275 279 287 292 299 306 308 317 312 312 315 318 322 322 318 319 318 317 311 309 306 304 305
205 224 208 199 202 228 224 124 186 256 250 242 233 237 233 224 219 218 212 209 216 227 232 248 254 262 275 277 282 290 294 299 311 312 313 310 313 315 317 316 314 311 311 314 308 304 302 302 300
168 226 219 213 183 236 235 241 287 295 275 238 220 228 234 224 219 216 214 219 229 235 236 243 254 256 270 275 283 286 292 294 304 308 306 307 306 310 310 311 310 310 306 306 301 299 296 295 294
44 254 258 225 255 243 226 218 301 69 110 152 190 212 209 210 205 219 222 230 239 246 253 242 252 262 274 278 282 283 285 294 296 297 297 297 301 304 303 302 309 304 298 296 296 298 296 296 296
290 278 248 266 259 212 230 195 165 105 119 124 136 147 166 193 203 219 226 237 244 251 232 232 247 267 275 274 282 280 284 289 289 289 293 296 294 294 294 305 301 297 293 294 295 297 298 296 296
311 309 296 294 275 261 229 207 195 139 115 102 104 117 126 151 155 222 236 246 248 254 257 260 273 281 279 275 276 276 279 282 284 287 287 285 289 305 301 299 296 293 295 298 297 297 294 293 294
288 279 299 285 265 251 211 232 180 176 152 122 109 115 117 126 137 205 239 251 262 280 285 280 284 281 272 269 273 278 283 283 284 287 288 288 305 302 301 300 297 295 291 291 293 294 291 288 288
286 288 284 264 252 270 231 264 139 172 171 191 164 126 162 222 226 234 255 279 291 295 292 283 274 268 269 273 274 281 280 278 281 300 305 308 300 300 303 299 295 295 292 292 296 295 291 288 285
332 321 280 260 232 242 210 280 154 158 184 197 179 85 224 239 249 262 283 292 291 287 277 271 273 276 279 284 288 292 302 309 310 308 311 310 307 305 303 302 299 299 298 299 297 295 291 289 286
352 298 263 211 195 249 125 275 44 132 138 185 219 281 274 259 275 291 303 289 290 287 282 280 280 283 293 297 305 308 311 314 312 308 304 305 305 304 303 301 300 299 299 298 297 297 296 292 290
354 15 11 299 334 315 207 264 113 154 150 245 283 276 297 288 295 301 297 295 295 299 297 294 290 293 301 308 308 304 304 303 301 299 300 301 303 303 301 300 299 299 300 301 296 293 290 286 284
333 32 350 268 315 251 272 228 207 170 137 329 303 312 299 300 307 318 328 313 305 298 297 298 296 302 306 305 303 301 299 299 299 300 300 301 301 298 298 300 303 307 301 299 299 299 296 295 292
52 18 320 2 318 300 335 300 112 169 239 297 319 322 303 290 298 308 309 305 302 302 297 291 291 297 303 303 299 307 302 301 298 299 302 301 300 305 309 309 306 299 297 299 297 295 294 295 294
340 335 352 316 333 306 323 355 35 268 275 293 305 307 297 283 286 301 300 298 303 304 304 301 307 311 312 307 300 300 297 298 303 303 302 307 309 311 312 310 304 300 300 299 294 292 292 291 293
321 304 319 311 332 273 293 283 54 111 302 305 308 307 298 286 295 299 304 297 300 299 297 306 306 302 301 297 297 302 307 306 304 307 309 312 314 313 310 309 304 301 293 291 291 294 294 293 291
Height
3148 3149 3152 3155 3162 3153 3149 3155 3156 3159 3161 3161 3161 3163 3163 3163 3162 3167 3164 3165 3165 3164 3165 3167 3168 3169 3169 3169 3168 3170 3171 3170 3169 3171 3170 3170 3169 3168 3166 3164 3163 3163 3162 3160 3159 3158 3158 3157 3156
3148 3150 3153 3156 3155 3148 3152 3157 3158 3160 3160 3161 3163 3164 3166 3164 3162 3162 3164 3164 3164 3164 3167 3168 3169 3169 3169 3170 3169 3169 3171 3171 3170 3169 3168 3167 3166 3165 3164 3162 3160 3160 3159 3157 3157 3156 3155 3154 3153
3149 3151 3155 3155 3149 3145 3152 3159 3158 3161 3162 3164 3164 3164 3165 3166 3164 3164 3164 3165 3165 3166 3167 3167 3167 3169 3169 3170 3170 3170 3170 3169 3169 3168 3166 3164 3164 3164 3162 3161 3159 3158 3156 3156 3155 3154 3153 3152 3151
3150 3155 3154 3152 3148 3150 3156 3159 3162 3162 3163 3165 3165 3165 3164 3166 3165 3163 3163 3165 3166 3167 3167 3169 3170 3170 3169 3169 3168 3170 3168 3168 3166 3165 3163 3162 3162 3162 3161 3158 3156 3155 3154 3153 3152 3150 3150 3149 3149
3151 3154 3152 3151 3153 3156 3158 3162 3162 3163 3165 3165 3165 3166 3164 3163 3162 3164 3164 3165 3167 3169 3169 3169 3170 3170 3169 3170 3169 3168 3168 3166 3165 3163 3161 3161 3161 3161 3160 3158 3156 3155 3154 3153 3151 3150 3149 3147 3146
3152 3151 3151 3152 3158 3159 3161 3162 3163 3164 3164 3165 3167 3167 3167 3164 3165 3165 3166 3167 3168 3168 3168 3169 3170 3170 3168 3169 3169 3168 3167 3165 3163 3162 3161 3161 3160 3159 3159 3157 3156 3155 3153 3152 3151 3149 3148 3147 3146
3150 3152 3149 3152 3160 3160 3161 3162 3165 3164 3164 3166 3166 3168 3166 3165 3165 3167 3167 3167 3168 3169 3168 3168 3168 3167 3167 3168 3166 3166 3167 3165 3164 3162 3161 3160 3160 3159 3158 3157 3155 3154 3153 3151 3150 3148 3147 3145 3144
3151 3151 3153 3157 3159 3160 3161 3162 3164 3165 3166 3164 3165 3167 3166 3166 3166 3166 3166 3168 3169 3170 3168 3168 3169 3166 3167 3168 3166 3166 3166 3164 3163 3162 3161 3161 3159 3158 3157 3155 3154 3152 3151 3149 3148 3146 3144 3143 3142
3154 3155 3155 3158 3158 3161 3161 3162 3163 3163 3164 3165 3165 3166 3167 3164 3166 3166 3167 3168 3170 3170 3168 3169 3169 3167 3167 3166 3165 3165 3164 3164 3162 3161 3160 3160 3158 3157 3155 3154 3151 3150 3148 3146 3145 3142 3140 3139 3138
3155 3153 3154 3159 3159 3161 3162 3163 3162 3163 3164 3164 3165 3163 3165 3163 3165 3165 3167 3167 3167 3168 3168 3169 3169 3168 3168 3167 3166 3166 3165 3164 3162 3161 3160 3159 3157 3155 3153 3151 3150 3147 3145 3142 3141 3139 3137 3135 3133
3154 3153 3157 3160 3160 3162 3163 3162 3162 3163 3164 3165 3166 3165 3165 3162 3162 3165 3168 3169 3169 3168 3169 3170 3168 3169 3166 3165 3166 3166 3165 3164 3162 3160 3160 3159 3156 3154 3151 3148 3145 3142 3140 3138 3135 3133 3132 3131 3129
3156 3156 3161 3161 3159 3162 3162 3162 3164 3165 3165 3164 3168 3167 3164 3163 3163 3165 3168 3168 3171 3171 3171 3171 3168 3168 3167 3166 3166 3166 3165 3164 3162 3160 3159 3158 3156 3153 3150 3148 3145 3141 3137 3135 3133 3130 3128 3127 3125
3159 3160 3162 3161 3160 3161 3160 3162 3164 3164 3164 3163 3166 3166 3164 3165 3166 3165 3169 3169 3171 3173 3172 3171 3168 3167 3166 3165 3165 3165 3165 3164 3162 3160 3158 3157 3154 3152 3149 3145 3142 3139 3135 3132 3130 3127 3125 3122 3121
3160 3162 3162 3160 3161 3160 3160 3164 3163 3164 3163 3164 3164 3167 3166 3166 3168 3166 3166 3171 3171 3171 3170 3170 3169 3166 3165 3164 3164 3164 3163 3162 3160 3157 3156 3154 3151 3149 3146 3143 3140 3137 3134 3130 3127 3125 3123 3120 3116
3161 3161 3162 3160 3162 3162 3160 3164 3164 3162 3161 3164 3164 3166 3167 3165 3167 3167 3167 3170 3171 3170 3170 3168 3168 3163 3163 3163 3162 3162 3160 3159 3156 3154 3152 3150 3147 3144 3141 3138 3135 3132 3130 3127 3123 3120 3117 3115 3113
3160 3161 3160 3161 3161 3161 3161 3158 3160 3161 3161 3163 3163 3163 3164 3166 3166 3167 3166 3167 3167 3169 3169 3167 3166 3162 3162 3160 3160 3159 3157 3155 3152 3149 3147 3145 3142 3140 3138 3136 3133 3130 3127 3124 3121 3117 3114 3110 3107
3159 3154 3158 3160 3160 3160 3161 3157 3159 3159 3158 3159 3161 3161 3161 3165 3165 3166 3166 3166 3167 3167 3167 3166 3162 3160 3158 3158 3157 3156 3153 3151 3148 3146 3144 3140 3137 3134 3132 3130 3128 3125 3121 3118 3115 3112 3109 3105 3102
3152 3155 3157 3157 3159 3159 3159 3158 3157 3155 3153 3154 3158 3160 3161 3162 3164 3165 3163 3163 3164 3163 3162 3163 3158 3157 3155 3154 3154 3152 3149 3146 3143 3142 3140 3136 3133 3129 3126 3123 3120 3117 3114 3110 3108 3105 3102 3099 3095
3156 3157 3156 3157 3156 3156 3156 3157 3157 3155 3155 3156 3157 3157 3158 3161 3163 3159 3158 3157 3157 3158 3159 3161 3154 3153 3154 3152 3150 3148 3145 3142 3140 3138 3132 3130 3126 3124 3119 3115 3112 3109 3106 3102 3099 3096 3093 3089 3087
3157 3156 3155 3155 3154 3154 3155 3155 3157 3156 3155 3157 3157 3156 3156 3156 3155 3154 3155 3155 3156 3155 3156 3154 3151 3151 3150 3147 3144 3143 3140 3137 3134 3131 3126 3124 3119 3115 3112 3108 3104 3100 3096 3093 3090 3086 3081 3078 3078
3155 3155 3155 3156 3155 3155 3155 3154 3156 3157 3155 3155 3154 3155 3156 3156 3154 3152 3153 3153 3153 3152 3151 3150 3148 3147 3145 3143 3139 3136 3133 3129 3127 3122 3119 3115 3112 3109 3104 3099 3094 3090 3085 3082 3078 3074 3071 3065 3063
3156 3154 3154 3155 3155 3150 3152 3145 3152 3153 3155 3155 3155 3154 3155 3154 3153 3152 3151 3150 3150 3150 3149 3147 3145 3142 3140 3138 3132 3131 3128 3123 3119 3114 3109 3106 3102 3099 3094 3089 3084 3080 3076 3072 3068 3065 3059 3056 3050
3156 3153 3153 3153 3152 3151 3149 3148 3148 3152 3154 3155 3155 3153 3152 3151 3151 3150 3150 3149 3147 3147 3146 3144 3141 3137 3135 3130 3128 3124 3118 3113 3108 3105 3101 3097 3090 3087 3082 3077 3073 3070 3066 3061 3056 3050 3045 3041 3037
3152 3153 3152 3151 3150 3149 3147 3150 3146 3149 3153 3154 3154 3152 3151 3149 3149 3149 3148 3146 3145 3144 3142 3140 3137 3132 3131 3127 3122 3118 3113 3107 3101 3097 3090 3085 3080 3075 3071 3066 3060 3056 3051 3044 3039 3033 3028 3023 3020
3154 3152 3148 3148 3147 3146 3148 3150 3147 3149 3150 3153 3153 3152 3149 3148 3148 3147 3145 3143 3140 3138 3136 3134 3132 3129 3123 3119 3116 3109 3102 3096 3092 3087 3081 3075 3070 3065 3060 3054 3049 3043 3037 3031 3025 3020 3015 3009 3006
3154 3153 3152 3150 3146 3146 3147 3145 3146 3149 3148 3149 3150 3149 3147 3145 3144 3143 3141 3139 3136 3133 3131 3130 3128 3124 3117 3111 3107 3102 3096 3090 3084 3077 3072 3066 3060 3054 3048 3042 3036 3029 3023 3017 3012 3009 3005 3000 2997
3154 3155 3154 3153 3153 3152 3144 3145 3147 3147 3149 3150 3149 3148 3147 3145 3143 3140 3139 3135 3132 3129 3126 3123 3120 3116 3111 3105 3098 3092 3086 3079 3073 3067 3062 3057 3052 3046 3038 3031 3024 3017 3010 3004 3001 2998 2995 2991 2988
3154 3155 3155 3154 3155 3150 3141 3143 3139 3147 3149 3149 3150 3148 3146 3144 3142 3141 3139 3134 3129 3125 3120 3116 3112 3108 3102 3095 3088 3082 3076 3071 3065 3059 3053 3046 3039 3032 3024 3016 3010 3005 3000 2997 2993 2990 2986 2982 2979
3156 3156 3156 3156 3157 3153 3150 3146 3147 3147 3148 3148 3147 3145 3144 3143 3140 3138 3133 3128 3124 3119 3113 3107 3101 3096 3091 3084 3078 3072 3065 3060 3054 3047 3039 3033 3026 3018 3012 3006 3001 2996 2991 2987 2983 2980 2977 2973 2970
3155 3156 3157 3157 3157 3157 3157 3152 3147 3147 3146 3145 3143 3142 3139 3138 3135 3132 3128 3122 3117 3112 3106 3100 3093 3087 3081 3075 3067 3061 3056 3050 3043 3035 3028 3022 3015 3008 3002 2997 2991 2986 2983 2978 2974 2970 2966 2963 2960